| time (UTC) | temp F | wind direction | speed MPH | gust MPH | rain 1hr in | rain 24hr in | rain mn in | humidity % | barometer mb |
| 20260506003122 | 66 | 149 | 3.0 | 7.0 | 0.00 | 0.00 | 0.00 | 80 | 1016.7 |
| 20260506002121 | 66 | 130 | 3.0 | 6.0 | 0.00 | 0.00 | 0.00 | 78 | 1016.6 |
| 20260506001122 | 67 | 161 | 3.0 | 6.0 | 0.00 | 0.00 | 0.00 | 76 | 1016.7 |
| 20260506000123 | 68 | 172 | 3.0 | 5.0 | 0.00 | 0.00 | 0.00 | 76 | 1016.5 |
| 20260505235122 | 68 | 173 | 4.0 | 8.0 | 0.00 | 0.00 | 0.00 | 74 | 1016.7 |
| 20260505234122 | 69 | 176 | 4.0 | 7.0 | 0.00 | 0.00 | 0.00 | 73 | 1016.7 |
| 20260505233142 | 69 | 164 | 4.0 | 6.0 | 0.00 | 0.00 | 0.00 | 72 | 1016.6 |
| 20260505232123 | 70 | 170 | 6.0 | 12.0 | 0.00 | 0.00 | 0.00 | 72 | 1016.7 |
| 20260505231123 | 70 | 162 | 4.0 | 10.0 | 0.00 | 0.00 | 0.00 | 72 | 1016.7 |
| 20260505230121 | 71 | 166 | 7.0 | 12.0 | 0.00 | 0.00 | 0.00 | 71 | 1016.6 |
| 20260505225122 | 71 | 179 | 6.0 | 10.0 | 0.00 | 0.00 | 0.00 | 70 | 1016.6 |
| 20260505224123 | 72 | 189 | 5.0 | 10.0 | 0.00 | 0.00 | 0.00 | 70 | 1016.6 |
| 20260505223143 | 72 | 169 | 6.0 | 10.0 | 0.00 | 0.00 | 0.00 | 68 | 1016.6 |
| 20260505222122 | 73 | 191 | 7.0 | 12.0 | 0.00 | 0.00 | 0.00 | 67 | 1016.6 |
| 20260505221143 | 74 | 198 | 6.0 | 10.0 | 0.00 | 0.00 | 0.00 | 66 | 1016.5 |
| 20260505220121 | 75 | 172 | 5.0 | 8.0 | 0.00 | 0.00 | 0.00 | 66 | 1016.5 |
| 20260505215122 | 75 | 185 | 6.0 | 10.0 | 0.00 | 0.00 | 0.00 | 65 | 1016.6 |
| 20260505214121 | 75 | 191 | 7.0 | 10.0 | 0.00 | 0.00 | 0.00 | 64 | 1016.6 |
| 20260505213122 | 76 | 178 | 4.0 | 7.0 | 0.00 | 0.00 | 0.00 | 64 | 1016.3 |
| 20260505212122 | 75 | 177 | 7.0 | 14.0 | 0.00 | 0.00 | 0.00 | 65 | 1016.3 |
| 20260505211121 | 76 | 177 | 6.0 | 10.0 | 0.00 | 0.00 | 0.00 | 64 | 1016.4 |
| 20260505210121 | 76 | 183 | 6.0 | 11.0 | 0.00 | 0.00 | 0.00 | 62 | 1016.5 |
| 20260505205123 | 75 | 180 | 6.0 | 14.0 | 0.00 | 0.00 | 0.00 | 63 | 1016.2 |
| 20260505204121 | 77 | 180 | 7.0 | 13.0 | 0.00 | 0.00 | 0.00 | 63 | 1016.2 |
| 20260505203121 | 75 | 175 | 6.0 | 10.0 | 0.00 | 0.00 | 0.00 | 63 | 1016.5 |
| 20260505202122 | 78 | 182 | 7.0 | 11.0 | 0.00 | 0.00 | 0.00 | 59 | 1016.4 |
| 20260505201121 | 77 | 186 | 6.0 | 10.0 | 0.00 | 0.00 | 0.00 | 60 | 1016.5 |
| 20260505200122 | 77 | 189 | 6.0 | 11.0 | 0.00 | 0.00 | 0.00 | 60 | 1016.8 |
| 20260505195121 | 77 | 163 | 6.0 | 8.0 | 0.00 | 0.00 | 0.00 | 60 | 1016.8 |
| 20260505194142 | 79 | 201 | 6.0 | 13.0 | 0.00 | 0.00 | 0.00 | 56 | 1016.9 |
| 20260505193121 | 79 | 183 | 8.0 | 15.0 | 0.00 | 0.00 | 0.00 | 56 | 1017.0 |
| 20260505192121 | 78 | 187 | 7.0 | 12.0 | 0.00 | 0.00 | 0.00 | 56 | 1017.2 |
| 20260505191142 | 79 | 186 | 7.0 | 12.0 | 0.00 | 0.00 | 0.00 | 55 | 1017.4 |
| 20260505190121 | 80 | 183 | 6.0 | 10.0 | 0.00 | 0.00 | 0.00 | 53 | 1017.4 |
| 20260505185123 | 80 | 180 | 6.0 | 11.0 | 0.00 | 0.00 | 0.00 | 52 | 1017.4 |
| 20260505184122 | 78 | 185 | 7.0 | 13.0 | 0.00 | 0.00 | 0.00 | 53 | 1017.5 |
| 20260505183121 | 80 | 155 | 6.0 | 11.0 | 0.00 | 0.00 | 0.00 | 54 | 1017.5 |
| 20260505182122 | 79 | 173 | 7.0 | 11.0 | 0.00 | 0.00 | 0.00 | 56 | 1017.5 |
| 20260505181122 | 80 | 172 | 6.0 | 12.0 | 0.00 | 0.00 | 0.00 | 54 | 1017.6 |
| 20260505180121 | 80 | 178 | 6.0 | 12.0 | 0.00 | 0.00 | 0.00 | 55 | 1017.7 |
| 20260505175121 | 78 | 184 | 6.0 | 11.0 | 0.00 | 0.00 | 0.00 | 57 | 1017.6 |
| 20260505174144 | 78 | 181 | 8.0 | 15.0 | 0.00 | 0.00 | 0.00 | 55 | 1017.6 |
| 20260505173123 | 79 | 171 | 6.0 | 9.0 | 0.00 | 0.00 | 0.00 | 57 | 1017.7 |
| 20260505172144 | 79 | 187 | 6.0 | 11.0 | 0.00 | 0.00 | 0.00 | 56 | 1017.7 |
| 20260505171123 | 79 | 182 | 7.0 | 13.0 | 0.00 | 0.00 | 0.00 | 57 | 1017.7 |
| 20260505170122 | 78 | 153 | 7.0 | 12.0 | 0.00 | 0.00 | 0.00 | 56 | 1017.8 |
| 20260505165123 | 79 | 184 | 6.0 | 10.0 | 0.00 | 0.00 | 0.00 | 56 | 1017.8 |
| 20260505164143 | 77 | 178 | 6.0 | 13.0 | 0.00 | 0.00 | 0.00 | 58 | 1017.8 |
| 20260505163122 | 80 | 184 | 5.0 | 9.0 | 0.00 | 0.00 | 0.00 | 56 | 1017.8 |
| 20260505162123 | 78 | 134 | 5.0 | 9.0 | 0.00 | 0.00 | 0.00 | 58 | 1018.0 |
| 20260505161122 | 78 | 183 | 7.0 | 10.0 | 0.00 | 0.00 | 0.00 | 58 | 1018.3 |
| 20260505160122 | 79 | 173 | 6.0 | 11.0 | 0.00 | 0.00 | 0.00 | 59 | 1018.3 |
| 20260505153122 | 77 | 197 | 5.0 | 8.0 | 0.00 | 0.00 | 0.00 | 60 | 1018.4 |
| 20260505151142 | 77 | 153 | 5.0 | 9.0 | 0.00 | 0.00 | 0.00 | 59 | 1018.6 |
| 20260505150122 | 76 | 196 | 4.0 | 7.0 | 0.00 | 0.00 | 0.00 | 61 | 1018.7 |
| 20260505140122 | 74 | 192 | 5.0 | 8.0 | 0.00 | 0.00 | 0.00 | 66 | 1018.7 |
| 20260505130122 | 71 | 178 | 4.0 | 7.0 | 0.00 | 0.00 | 0.00 | 76 | 1018.7 |
| 20260505124142 | 69 | 185 | 4.0 | 5.0 | 0.00 | 0.00 | 0.00 | 80 | 1018.7 |
| 20260505123123 | 68 | 176 | 3.0 | 5.0 | 0.00 | 0.00 | 0.00 | 81 | 1018.6 |
| 20260505122122 | 66 | 180 | 0.0 | 2.0 | 0.00 | 0.00 | 0.00 | 84 | 1018.6 |
| 20260505121122 | 64 | 135 | 0.0 | 0.0 | 0.00 | 0.00 | 0.00 | 87 | 1018.4 |
| 20260505120144 | 60 | 158 | 0.0 | 0.0 | 0.00 | 0.00 | 0.00 | 91 | 1018.5 |
| 20260505115122 | 59 | 23 | 0.0 | 0.0 | 0.00 | 0.00 | 0.00 | 92 | 1018.5 |
| 20260505114144 | 56 | 45 | 0.0 | 0.0 | 0.00 | 0.00 | 0.00 | 98 | 1018.3 |
| 20260505113122 | 53 | 23 | 0.0 | 0.0 | 0.00 | 0.00 | 0.00 | 99 | 1018.2 |
| 20260505112123 | 50 | 158 | 0.0 | 0.0 | 0.00 | 0.00 | 0.00 | 99 | 1018.1 |
| 20260505111122 | 49 | 270 | 0.0 | 0.0 | 0.00 | 0.00 | 0.00 | 99 | 1018.1 |
| 20260505110123 | 49 | 315 | 0.0 | 0.0 | 0.00 | 0.00 | 0.00 | 99 | 1017.9 |
| 20260505102143 | 48 | 180 | 0.0 | 0.0 | 0.00 | 0.00 | 0.00 | 99 | 1017.4 |
| 20260505101122 | 48 | 225 | 0.0 | 0.0 | 0.00 | 0.00 | 0.00 | 99 | 1017.2 |
| 20260505100121 | 48 | 270 | 0.0 | 0.0 | 0.00 | 0.00 | 0.00 | 99 | 1017.1 |
| 20260505095122 | 48 | 248 | 0.0 | 0.0 | 0.00 | 0.00 | 0.00 | 99 | 1017.0 |
| 20260505094122 | 48 | 270 | 0.0 | 0.0 | 0.00 | 0.00 | 0.00 | 99 | 1017.0 |
| 20260505093122 | 48 | 270 | 0.0 | 0.0 | 0.00 | 0.00 | 0.00 | 99 | 1017.0 |
| 20260505092122 | 49 | 203 | 0.0 | 0.0 | 0.00 | 0.00 | 0.00 | 99 | 1016.8 |
| 20260505091121 | 49 | 203 | 0.0 | 0.0 | 0.00 | 0.00 | 0.00 | 99 | 1016.8 |
| 20260505090143 | 49 | 248 | 0.0 | 0.0 | 0.00 | 0.00 | 0.00 | 99 | 1016.9 |
| 20260505085122 | 49 | 180 | 0.0 | 0.0 | 0.00 | 0.00 | 0.00 | 99 | 1016.6 |
| 20260505084122 | 49 | 180 | 0.0 | 0.0 | 0.00 | 0.00 | 0.00 | 99 | 1016.6 |
| 20260505083122 | 50 | 180 | 0.0 | 0.0 | 0.00 | 0.00 | 0.00 | 99 | 1016.7 |
| 20260505082122 | 50 | 180 | 0.0 | 0.0 | 0.00 | 0.00 | 0.00 | 99 | 1016.7 |
| 20260505081143 | 50 | 180 | 0.0 | 0.0 | 0.00 | 0.00 | 0.00 | 99 | 1016.5 |
| 20260505080121 | 50 | 270 | 0.0 | 0.0 | 0.00 | 0.00 | 0.00 | 99 | 1016.6 |
| 20260505075122 | 51 | 270 | 0.0 | 0.0 | 0.00 | 0.00 | 0.00 | 99 | 1016.6 |
| 20260505074122 | 51 | 180 | 0.0 | 0.0 | 0.00 | 0.00 | 0.00 | 99 | 1016.4 |
| 20260505073122 | 51 | 180 | 0.0 | 0.0 | 0.00 | 0.00 | 0.00 | 99 | 1016.5 |
| 20260505072122 | 51 | 158 | 0.0 | 0.0 | 0.00 | 0.00 | 0.00 | 99 | 1016.3 |
| 20260505071122 | 52 | 113 | 0.0 | 0.0 | 0.00 | 0.00 | 0.00 | 99 | 1016.4 |
| 20260505070143 | 52 | 180 | 0.0 | 0.0 | 0.00 | 0.00 | 0.00 | 99 | 1016.5 |
| 20260505065123 | 52 | 158 | 0.0 | 0.0 | 0.00 | 0.00 | 0.00 | 99 | 1016.5 |
| 20260505064123 | 52 | 248 | 0.0 | 0.0 | 0.00 | 0.00 | 0.00 | 99 | 1016.5 |
| 20260505063122 | 53 | 180 | 0.0 | 0.0 | 0.00 | 0.00 | 0.00 | 98 | 1016.6 |
| 20260505062122 | 53 | 225 | 0.0 | 0.0 | 0.00 | 0.00 | 0.00 | 98 | 1016.7 |
| 20260505061143 | 54 | 135 | 0.0 | 0.0 | 0.00 | 0.00 | 0.00 | 98 | 1016.9 |
| 20260505060123 | 54 | 128 | 0.0 | 2.0 | 0.00 | 0.00 | 0.00 | 98 | 1017.0 |
| 20260505055122 | 55 | 90 | 0.0 | 0.0 | 0.00 | 0.00 | 0.00 | 97 | 1017.0 |
| 20260505054122 | 55 | 129 | 0.0 | 2.0 | 0.00 | 0.00 | 0.00 | 97 | 1017.0 |
| 20260505053122 | 56 | 157 | 0.0 | 5.0 | 0.00 | 0.00 | 0.00 | 95 | 1017.0 |
| 20260505052122 | 56 | 156 | 2.0 | 4.0 | 0.00 | 0.00 | 0.00 | 94 | 1017.0 |
| 20260505051123 | 56 | 168 | 1.0 | 4.0 | 0.00 | 0.00 | 0.00 | 95 | 1017.1 |
| 20260505050123 | 56 | 138 | 1.0 | 3.0 | 0.00 | 0.00 | 0.00 | 96 | 1017.0 |
| 20260505041122 | 54 | 72 | 0.0 | 2.0 | 0.00 | 0.00 | 0.00 | 99 | 1017.1 |
| 20260505040122 | 54 | 196 | 0.0 | 2.0 | 0.00 | 0.00 | 0.00 | 98 | 1017.2 |
| 20260505035122 | 54 | 109 | 0.0 | 2.0 | 0.00 | 0.00 | 0.00 | 98 | 1017.2 |
| 20260505034123 | 55 | 171 | 0.0 | 3.0 | 0.00 | 0.00 | 0.00 | 98 | 1017.3 |
| 20260505033122 | 55 | 184 | 0.0 | 2.0 | 0.00 | 0.00 | 0.00 | 96 | 1017.3 |
| 20260505032144 | 55 | 180 | 0.0 | 0.0 | 0.00 | 0.00 | 0.00 | 96 | 1017.2 |
| 20260505031122 | 55 | 158 | 0.0 | 0.0 | 0.00 | 0.00 | 0.00 | 95 | 1017.5 |
| 20260505030122 | 56 | 135 | 0.0 | 0.0 | 0.00 | 0.00 | 0.00 | 94 | 1017.4 |
| 20260505025122 | 57 | 158 | 0.0 | 0.0 | 0.00 | 0.00 | 0.00 | 93 | 1017.4 |
| 20260505024122 | 57 | 111 | 2.0 | 2.0 | 0.00 | 0.00 | 0.00 | 93 | 1017.6 |
| 20260505023122 | 58 | 111 | 2.0 | 4.0 | 0.00 | 0.00 | 0.00 | 92 | 1017.4 |
| 20260505022122 | 58 | 122 | 1.0 | 2.0 | 0.00 | 0.00 | 0.00 | 89 | 1017.4 |
| 20260505021123 | 59 | 120 | 1.0 | 2.0 | 0.00 | 0.00 | 0.00 | 89 | 1017.2 |
| 20260505020143 | 59 | 138 | 1.0 | 4.0 | 0.00 | 0.00 | 0.00 | 87 | 1017.2 |
| 20260505015123 | 60 | 147 | 2.0 | 3.0 | 0.00 | 0.00 | 0.00 | 85 | 1017.2 |
| 20260505014143 | 60 | 129 | 2.0 | 2.0 | 0.00 | 0.00 | 0.00 | 84 | 1017.2 |
| 20260505013143 | 61 | 132 | 2.0 | 3.0 | 0.00 | 0.00 | 0.00 | 82 | 1017.0 |
| 20260505012143 | 62 | 129 | 2.0 | 4.0 | 0.00 | 0.00 | 0.00 | 80 | 1016.8 |
| 20260505011122 | 62 | 175 | 3.0 | 5.0 | 0.00 | 0.00 | 0.00 | 78 | 1016.7 |
| 20260505010122 | 63 | 158 | 3.0 | 5.0 | 0.00 | 0.00 | 0.00 | 77 | 1016.6 |
| 20260505005122 | 63 | 149 | 3.0 | 5.0 | 0.00 | 0.00 | 0.00 | 76 | 1016.4 |
| 20260505004122 | 64 | 151 | 4.0 | 6.0 | 0.00 | 0.00 | 0.00 | 74 | 1016.4 |